"2010-12-16 00:00:00",426541,4.812,58.49,6.638,1.185,3.605,100.3398,0.167,1.119,87.6,0,109.5,13.59,0.92,20.5
"2010-12-16 00:00:30",426542,5.085,60.2,6.644,1.378,4.252,100.3415,0.171,1.221,87.6,0,109.5,13.59,0.92,22.2
"2010-12-16 00:01:00",426543,6.076,64.56,5.669,1.098,5.794,100.3471,0.186,1.273,87.6,0,109.5,13.59,0.94,26.6
"2010-12-16 00:01:30",426544,6.437,64.49,5.715,1.131,5.877,100.3471,0.186,1.309,87.4,0,109.5,13.59,0.94,26.5
"2010-12-16 00:02:00",426545,6.617,64.23,5.554,1.078,5.717,100.3398,0.167,1.283,87,0,109.5,13.59,0.92,26.2
"2010-12-16 00:02:30",426546,6.636,65.01,5.441,1.083,5.469,100.3398,0.167,1.233,86.7,0,109.5,13.59,0.92,27.0
"2010-12-16 00:03:00",426547,5.53,58.49,6.135,1.138,3.182,100.3398,0.167,1.135,86.6,0,109.5,13.59,0.92,20.5
"2010-12-16 00:03:30",426548,6.371,63.14,6.243,1.176,4.908,100.3347,0.154,1.262,86.6,0,109.5,13.59,0.91,25.1
"2010-12-16 00:04:00",426549,6.501,64.65,5.458,1.073,5.747,100.3225,0.123,1.228,86.4,0,109.5,13.59,0.88,26.7
"2010-12-16 00:04:30",426550,6.918,67.28,2.767,0.693,6.99,100.3191,0.114,1.276,86.5,0,109.5,13.59,0.87,29.3
"2010-12-16 00:05:00",426551,6.778,65.93,3.651,0.738,6.498,100.333,0.149,1.264,86.7,0,109.5,13.59,0.90,27.9
"2010-12-16 00:05:30",426552,5.807,61.98,5.919,1.226,4.946,100.3398,0.167,1.251,86.9,0,109.5,13.59,0.92,24.0
"2010-12-16 00:06:00",426553,5.342,60.76,5.987,1.224,3.705,100.3398,0.167,1.072,86.9,0,109.5,13.59,0.92,22.8
"2010-12-16 00:06:30",426554,5.632,61.9,6.346,1.189,4.475,100.3404,0.168,1.244,87.2,0,109.5,13.59,0.92,23.9
"2010-12-16 00:07:00",426555,6.394,65.78,5.709,1.129,5.858,100.3409,0.17,1.282,87.1,0,109.5,13.59,0.92,27.8
"2010-12-16 00:07:30",426556,7.027,69.62,2.978,0.783,6.847,100.3398,0.167,1.327,86.9,0,109.5,13.6,0.92,31.6
"2010-12-16 00:08:00",426557,7.24,66.69,5.258,0.859,6.441,100.3398,0.167,1.326,86.6,0,109.5,13.59,0.92,28.7
"2010-12-16 00:08:30",426558,6.748,65.46,5.821,1.141,5.389,100.3398,0.167,1.238,86.2,0,109.5,13.59,0.92,27.5
"2010-12-16 00:09:00",426559,6.634,64.8,5.974,1.136,4.769,100.3344,0.153,1.212,86.3,0,109.5,13.59,0.91,26.8
"2010-12-16 00:09:30",426560,6.741,64.96,6.006,1.16,5.042,100.3228,0.123,1.162,86.3,0,109.5,13.59,0.88,27.0
"2010-12-16 00:10:00",426561,6.662,64.47,5.789,1.038,5.992,100.3256,0.131,1.316,86.6,0,109.5,13.59,0.88,26.5
"2010-12-16 00:10:30",426562,7.128,68.74,2.135,0.738,6.648,100.3384,0.163,1.301,87,0,109.5,13.6,0.92,30.7
"2010-12-16 00:11:00",426563,6.741,65.39,5.475,1.089,5.834,100.3398,0.167,1.3,87.1,0,109.5,13.6,0.92,27.4
"2010-12-16 00:11:30",426564,6.171,63.41,6.309,1.195,4.678,100.3398,0.167,1.219,87.1,0,109.5,13.59,0.92,25.4
"2010-12-16 00:12:00",426565,5.433,60.88,7.598,1.216,3.419,100.3389,0.165,1.224,87.1,0,109.5,13.59,0.92,22.9
"2010-12-16 00:12:30",426566,6.369,68.97,5.517,1.009,5.49,100.3398,0.167,1.229,87.1,0,109.5,13.6,0.92,31.0
"2010-12-16 00:13:00",426567,6.304,67.29,5.575,1.066,5.523,100.3398,0.167,1.236,87,0,109.5,13.6,0.92,29.3
"2010-12-16 00:13:30",426568,6.65,72.99,3.981,0.568,6.596,100.3395,0.166,1.305,86.9,0,109.5,13.6,0.92,35.0
"2010-12-16 00:14:00",426569,5.935,70.91,6.284,1.085,5.693,100.3398,0.167,1.212,86.6,0,109.5,13.6,0.92,32.9
"2010-12-16 00:14:30",426570,5.928,71.78,6.779,1.129,4.946,100.3398,0.167,1.182,86.2,0,109.5,13.59,0.92,33.8
"2010-12-16 00:15:00",426571,6.038,71.81,6.232,1.028,5.38,100.3398,0.167,1.16,86,0,109.5,13.6,0.92,33.8
"2010-12-16 00:15:30",426572,6.074,72.64,5.952,1.08,5.229,100.3398,0.167,1.257,86,0,109.5,13.6,0.92,34.6
"2010-12-16 00:16:00",426573,5.973,69.27,6.298,1.154,5.439,100.3508,0.195,1.257,86.1,0,109.5,13.6,0.95,31.3
"2010-12-16 00:16:30",426574,6.292,71.81,4.656,0.995,6.554,100.367,0.236,1.337,86.4,0,109.5,13.59,0.99,33.8
"2010-12-16 00:17:00",426575,5.461,69.29,5.942,1.211,4.238,100.3738,0.253,1.161,86.1,0,109.5,13.59,1.01,31.3
"2010-12-16 00:17:30",426576,6.1,72.16,6.061,1.152,5.022,100.3738,0.253,1.311,86,0,109.5,13.59,1.01,34.2
"2010-12-16 00:18:00",426577,5.866,73.23,6.03,1.202,5.442,100.3755,0.258,1.354,85.7,0,109.5,13.59,1.01,35.2
"2010-12-16 00:18:30",426578,6.347,72.44,5.492,1.001,5.8,100.3876,0.289,1.392,85.6,0,109.5,13.59,1.04,34.4
"2010-12-16 00:19:00",426579,6.105,71.59,6.14,1.129,5.209,100.3933,0.303,1.354,85.5,0,109.5,13.59,1.06,33.6
"2010-12-16 00:19:30",426580,6.896,74.21,4.737,0.845,6.595,100.4049,0.333,1.419,85.1,0,109.5,13.59,1.09,36.2
"2010-12-16 00:20:00",426581,6.087,69.02,6.384,1.23,5.537,100.4077,0.34,1.354,84.7,0,109.5,13.59,1.09,31.0
"2010-12-16 00:20:30",426582,6.439,68.72,6.123,1.125,5.108,100.4077,0.34,1.43,84.7,0,109.5,13.59,1.09,30.7
"2010-12-16 00:21:00",426583,6.1,70.73,6.077,1.206,5.134,100.4097,0.345,1.407,84.3,0,109.5,13.59,1.10,32.7
"2010-12-16 00:21:30",426584,6.408,75.88,6.005,1.059,5.494,100.414,0.356,1.431,83.6,0,109.5,13.59,1.11,37.9
"2010-12-16 00:22:00",426585,6.801,72.19,6.891,1.208,6.128,100.4185,0.368,1.458,83.2,0,109.5,13.6,1.12,34.2
"2010-12-16 00:22:30",426586,7.375,79.17,3.578,0.796,6.783,100.4228,0.378,1.442,83,0,109.5,13.6,1.13,41.2
"2010-12-16 00:23:00",426587,6.292,73.92,6.751,1.253,5.347,100.4261,0.387,1.457,82.7,0,109.5,13.6,1.14,35.9
"2010-12-16 00:23:30",426588,6.886,76.68,5.576,1.067,5.829,100.4378,0.417,1.495,82.7,0,109.5,13.6,1.17,38.7
"2010-12-16 00:24:00",426589,7.094,78.18,5.377,1.037,5.788,100.4414,0.426,1.472,82.5,0,109.5,13.6,1.18,40.2
"2010-12-16 00:24:30",426590,6.95,80.2,5.604,1.043,5.956,100.4417,0.427,1.491,82.1,0,109.5,13.6,1.18,42.2
"2010-12-16 00:25:00",426591,6.55,80.5,5.833,1.196,5.617,100.4417,0.427,1.529,81.5,0,109.5,13.6,1.18,42.5
"2010-12-16 00:25:30",426592,6.761,81.4,6.108,1.112,5.725,100.4417,0.427,1.422,80.4,0,109.5,13.6,1.18,43.4
"2010-12-16 00:26:00",426593,7.149,84.9,5.91,1.225,5.696,100.4375,0.416,1.481,78.8,0,109.5,13.6,1.17,46.9
"2010-12-16 00:26:30",426594,8.07,90.3,5.57,1.1,5.456,100.412,0.351,1.471,77.56,0,109.5,13.6,1.10,52.3
"2010-12-16 00:27:00",426595,8.75,91.2,4.591,0.383,6.559,100.3953,0.308,1.502,77.22,0,109.5,13.6,1.06,53.2
"2010-12-16 00:27:30",426596,9,97.6,3.904,0.677,5.853,100.3718,0.248,1.463,76.99,0,109.5,13.6,1.00,59.6
"2010-12-16 00:28:00",426597,9.18,97.7,3.431,0.72,5.663,100.3429,0.175,1.443,76.88,0,109.5,13.6,0.93,59.7
"2010-12-16 00:28:30",426598,9.12,98.7,3.078,0.521,5.778,100.314,0.101,1.368,76.85,0,109.5,13.6,0.85,60.7
"2010-12-16 00:29:00",426599,8.84,96.7,3.72,0.619,5.823,100.3033,0.074,1.314,77.14,0,109.5,13.6,0.83,58.7
"2010-12-16 00:29:30",426600,8.18,91.9,4.471,0.609,6.121,100.2984,0.061,1.291,77.67,0,109.5,13.6,0.81,53.9
"2010-12-16 00:30:00",426601,8.05,90.8,3.645,0.889,5.832,100.3058,0.08,1.316,78.1,0,109.5,13.6,0.83,52.8
"2010-12-16 00:30:30",426602,8.47,92.1,5.504,0.888,5.119,100.3067,0.082,1.232,77.72,0,109.5,13.6,0.83,54.1
"2010-12-16 00:31:00",426603,7.136,82.9,6.067,1.206,3.886,100.3061,0.081,1.218,77.63,0,109.5,13.6,0.83,44.9
"2010-12-16 00:31:30",426604,6.057,79.08,4.847,1.021,2.302,100.3064,0.082,1.074,77.73,0,109.5,13.59,0.83,41.1
"2010-12-16 00:32:00",426605,7.406,83.9,5.214,0.877,6.035,100.3186,0.113,1.299,78.56,0,109.5,13.6,0.87,45.9
"2010-12-16 00:32:30",426606,7.306,84.4,6.243,0.615,7.201,100.3398,0.167,1.354,79.89,0,109.5,13.6,0.92,46.4
"2010-12-16 00:33:00",426607,7.336,87.3,5.866,0.822,6.998,100.3517,0.197,1.385,79.54,0,109.5,13.59,0.95,49.3
"2010-12-16 00:33:30",426608,7.138,87.2,5,0.898,6.803,100.3732,0.252,1.392,79.73,0,109.5,13.59,1.00,49.2
"2010-12-16 00:34:00",426609,6.983,87.9,5.897,0.981,5.429,100.3749,0.256,1.321,78.95,0,109.5,13.59,1.01,49.9
"2010-12-16 00:34:30",426610,5.697,83.9,3.529,0.548,2.2,100.374,0.254,1.235,77.88,0,109.5,13.59,1.01,45.9
"2010-12-16 00:35:00",426611,7.293,94.5,6.838,1.252,4.575,100.352,0.198,1.331,77.42,0,109.5,13.59,0.95,56.5
"2010-12-16 00:35:30",426612,7.558,95.3,4.664,0.976,5.792,100.3401,0.168,1.349,77.46,0,109.5,13.59,0.92,57.3
"2010-12-16 00:36:00",426613,7.09,93,2.575,0.874,6.992,100.3404,0.168,1.38,77.64,0,109.5,13.59,0.92,55.0
"2010-12-16 00:36:30",426614,6.878,85.7,4.139,0.533,7.107,100.3486,0.189,1.372,78.05,0,109.5,13.59,0.94,47.7
"2010-12-16 00:37:00",426615,6.368,80.6,5.775,1.041,5.815,100.3763,0.26,1.356,78.92,0,109.5,13.59,1.01,42.6
"2010-12-16 00:37:30",426616,5.337,76.47,5.078,1.037,3.238,100.4063,0.336,1.235,79.03,0,109.5,13.59,1.09,38.5
"2010-12-16 00:38:00",426617,5.475,80.8,6.98,1.117,3.268,100.4182,0.367,1.333,78.19,0,109.5,13.6,1.12,42.8
"2010-12-16 00:38:30",426618,6.806,91.4,8.01,1.378,5.114,100.4194,0.37,1.415,76.99,0,109.5,13.6,1.12,53.4
"2010-12-16 00:39:00",426619,7.731,98.7,2.833,0.785,6.692,100.4089,0.343,1.503,76.51,0,109.5,13.6,1.10,60.7
"2010-12-16 00:39:30",426620,7.958,102.1,3.524,0.682,7.049,100.3874,0.288,1.475,76.51,0,109.5,13.6,1.04,64.1
"2010-12-16 00:40:00",426621,7.911,105.4,4.501,0.759,6.578,100.3738,0.253,1.448,76.73,0,109.5,13.6,1.01,67.4
"2010-12-16 00:40:30",426622,7.855,104.7,4.146,0.654,6.487,100.3506,0.194,1.413,76.93,0,109.5,13.6,0.95,66.7
"2010-12-16 00:41:00",426623,7.667,100.6,4.419,0.654,6.238,100.3426,0.174,1.41,77.19,0,109.5,13.6,0.93,62.6
"2010-12-16 00:41:30",426624,7.595,100.2,3.389,0.786,5.578,100.3565,0.209,1.345,77.29,0,109.5,13.6,0.96,62.2
"2010-12-16 00:42:00",426625,6.165,93.6,5.8,1.146,2.88,100.3743,0.255,1.222,77.15,0,109.5,13.6,1.01,55.6
"2010-12-16 00:42:30",426626,5.782,95.1,6.581,1.003,2.761,100.3792,0.267,1.217,77.12,0,109.5,13.6,1.02,57.1
"2010-12-16 00:43:00",426627,6.948,100.8,5.792,1.086,4.985,100.3933,0.303,1.381,77.16,0,109.5,13.6,1.06,62.8
"2010-12-16 00:43:30",426628,7.477,110,4.367,0.777,6.374,100.3894,0.293,1.456,77.27,0,109.5,13.6,1.05,72.0
"2010-12-16 00:44:00",426629,7.99,118.4,2.727,0.777,5.809,100.3573,0.212,1.423,78.48,0,109.5,13.6,0.96,80.4
"2010-12-16 00:44:30",426630,8.21,119.7,2.941,0.655,6.03,100.3086,0.087,1.381,79.66,0,109.5,13.6,0.84,81.7
"2010-12-16 00:45:00",426631,7.963,118.9,4.467,0.444,6.244,100.2645,-0.025,1.265,80.4,0,109.5,13.6,0.73,80.9
"2010-12-16 00:45:30",426632,7.831,123.6,3.226,0.766,5.51,100.2294,-0.115,1.198,80.8,0,109.5,13.6,0.64,85.6
"2010-12-16 00:46:00",426633,7.268,122.1,5.323,1.075,4.192,100.1979,-0.195,1.063,81.6,0,109.5,13.6,0.56,84.1
"2010-12-16 00:46:30",426634,7.375,123.3,5.431,1.019,4.272,100.1603,-0.291,0.933,82.4,0,109.5,13.6,0.46,85.3
"2010-12-16 00:47:00",426635,6.394,116.9,5.335,1.134,2.946,100.1223,-0.388,0.811,83.1,0,109.5,13.6,0.36,78.9
"2010-12-16 00:47:30",426636,6.941,119.9,6.363,1.205,3.987,100.0912,-0.467,0.761,83.7,0,109.5,13.6,0.28,81.9
"2010-12-16 00:48:00",426637,7.705,123,4.88,0.763,5.82,100.064,-0.536,0.813,84.3,0,109.5,13.6,0.21,85.0
"2010-12-16 00:48:30",426638,7.883,122.3,3.515,0.677,5.929,100.0368,-0.606,0.721,84.7,0,109.5,13.6,0.14,84.3
"2010-12-16 00:49:00",426639,7.823,121.8,2.809,0.678,5.819,100.0221,-0.643,0.677,85,0,109.5,13.6,0.11,83.8
"2010-12-16 00:49:30",426640,7.774,117.4,3.115,0.59,6.057,100.0048,-0.687,0.607,85.1,0,109.5,13.59,0.06,79.4
"2010-12-16 00:50:00",426641,7.652,118.9,4.37,0.649,5.601,100.0031,-0.692,0.553,85.1,0,109.5,13.6,0.06,80.9
"2010-12-16 00:50:30",426642,7.577,122.6,3.408,0.757,5.059,100.0076,-0.68,0.542,85.1,0,109.5,13.59,0.07,84.6
"2010-12-16 00:51:00",426643,7.528,123,3.915,0.652,4.925,99.99688,-0.708,0.542,85.5,0,109.5,13.59,0.04,85.0
"2010-12-16 00:51:30",426644,7.487,122.7,3.95,0.748,4.901,99.98045,-0.749,0.5,85.7,0,109.5,13.59,-0.00,84.7
"2010-12-16 00:52:00",426645,7.345,120.3,5.595,0.975,4.22,99.9714,-0.773,0.419,85.8,0,109.5,13.59,-0.02,82.3
"2010-12-16 00:52:30",426646,7.147,115.5,7.344,1.021,3.785,99.95412,-0.817,0.261,85.7,0,109.5,13.59,-0.07,77.5
"2010-12-16 00:53:00",426647,7.102,109.8,6.046,1.224,3.683,99.936,-0.863,0.207,84.7,0,109.5,13.59,-0.11,71.8
"2010-12-16 00:53:30",426648,7.756,111.1,5.647,1.064,4.794,99.91589,-0.914,0.27,83.4,0,109.5,13.59,-0.17,73.1
"2010-12-16 00:54:00",426649,8.76,115.5,4.143,0.658,5.81,99.91051,-0.928,0.256,82.3,0,109.5,13.6,-0.18,77.5
"2010-12-16 00:54:30",426650,8.67,112.6,4.919,0.519,5.982,99.9023,-0.949,0.221,80.8,0,109.5,13.6,-0.20,74.6
"2010-12-16 00:55:00",426651,8.33,113.4,2.938,0.824,5.61,99.90257,-0.948,0.23,79.83,0,109.5,13.6,-0.20,75.4
"2010-12-16 00:55:30",426652,8.68,112.7,3.659,0.67,5.591,99.91135,-0.926,0.215,79.06,0,109.5,13.6,-0.18,74.7
"2010-12-16 00:56:00",426653,8.75,110.8,3.433,0.653,5.675,99.91306,-0.921,0.207,77.97,0,109.5,13.6,-0.17,72.8
"2010-12-16 00:56:30",426654,8.83,109.6,3.272,0.5,5.484,99.91447,-0.918,0.234,77.34,0,109.5,13.6,-0.17,71.6
"2010-12-16 00:57:00",426655,8.93,110.5,3.958,0.659,5.237,99.91418,-0.918,0.24,76.92,0,109.5,13.6,-0.17,72.5
"2010-12-16 00:57:30",426656,8.82,110.5,3.513,0.668,5.334,99.92184,-0.899,0.253,76.68,0,109.5,13.6,-0.15,72.5
"2010-12-16 00:58:00",426657,8.8,111,2.944,0.759,5.079,99.93175,-0.874,0.261,76.48,0,109.5,13.6,-0.12,73.0
"2010-12-16 00:58:30",426658,9.14,109.2,2.993,0.572,5.2,99.94563,-0.838,0.268,76.01,0,109.5,13.6,-0.09,71.2
"2010-12-16 00:59:00",426659,9.24,108.3,3.689,0.625,4.998,99.94958,-0.828,0.283,75.51,0,109.5,13.6,-0.08,70.3
"2010-12-16 00:59:30",426660,9.18,110.4,3.585,0.677,4.62,99.94901,-0.83,0.314,75.62,0,109.5,13.6,-0.08,72.4
"2010-12-16 01:00:00",426661,8.84,114.4,3.592,0.676,4.305,99.92551,-0.889,0.293,77.26,0,109.5,13.6,-0.14,76.4
"2010-12-16 01:00:30",426662,9.33,107.1,4.583,0.523,5.383,99.90598,-0.939,0.272,77.9,0,109.5,13.6,-0.19,69.1
"2010-12-16 01:01:00",426663,9.41,104.4,3.832,0.553,5.348,99.89918,-0.957,0.243,76.94,0,109.5,13.6,-0.21,66.4
"2010-12-16 01:01:30",426664,9.13,107.2,4.55,0.585,4.819,99.89946,-0.956,0.22,76.5,0,109.5,13.6,-0.21,69.2
"2010-12-16 01:02:00",426665,8.79,111.9,3.714,0.568,4.61,99.89068,-0.978,0.224,77.9,0,109.5,13.6,-0.23,73.9
"2010-12-16 01:02:30",426666,8.66,116.1,4.041,0.494,4.71,99.86405,-1.046,0.198,79.45,0,109.5,13.6,-0.30,78.1
"2010-12-16 01:03:00",426667,8.54,117.8,3.166,0.639,4.314,99.83573,-1.118,0.119,81,0,109.5,13.6,-0.37,79.8
"2010-12-16 01:03:30",426668,8.52,117,3.312,0.703,4.37,99.80289,-1.202,0.071,81.9,0,109.5,13.6,-0.45,79.0
"2010-12-16 01:04:00",426669,8.65,113.3,3.514,0.675,4.556,99.77654,-1.269,-0.011,82.3,0,109.5,13.6,-0.52,75.3
"2010-12-16 01:04:30",426670,8.73,112,3.813,0.373,4.822,99.7522,-1.331,-0.074,82.4,0,109.5,13.6,-0.58,74.0
"2010-12-16 01:05:00",426671,8.45,113,2.848,0.767,4.458,99.74229,-1.357,-0.121,82.5,0,109.5,13.6,-0.61,75.0
"2010-12-16 01:05:30",426672,8.87,113.4,3.389,0.665,4.383,99.72755,-1.394,-0.145,82.7,0,109.5,13.6,-0.65,75.4
"2010-12-16 01:06:00",426673,8.75,114.6,3.656,0.648,4.453,99.70972,-1.44,-0.198,83,0,109.5,13.6,-0.69,76.6
"2010-12-16 01:06:30",426674,8.86,114.9,3.251,0.528,4.686,99.70547,-1.45,-0.223,83.3,0,109.5,13.59,-0.70,76.9
"2010-12-16 01:07:00",426675,9.07,113.9,4.295,0.505,4.634,99.6797,-1.516,-0.26,83.1,0,109.5,13.59,-0.77,75.9
"2010-12-16 01:07:30",426676,9.3,111.1,3.923,0.616,4.744,99.67574,-1.526,-0.276,82.7,0,109.5,13.59,-0.78,73.1
"2010-12-16 01:08:00",426677,9.71,108.7,2.623,0.788,4.905,99.67771,-1.521,-0.306,82,0,109.5,13.59,-0.77,70.7
"2010-12-16 01:08:30",426678,9.64,113.1,3.689,0.566,4.772,99.67771,-1.521,-0.319,81.6,0,109.5,13.59,-0.77,75.1
"2010-12-16 01:09:00",426679,9.68,116,4.503,0.301,4.576,99.67545,-1.527,-0.336,82.2,0,109.5,13.59,-0.78,78.0
"2010-12-16 01:09:30",426680,9.8,116.6,3.485,0.643,4.498,99.65504,-1.579,-0.339,82.8,0,109.5,13.59,-0.83,78.6
"2010-12-16 01:10:00",426681,10.31,118.9,3.208,0.668,4.341,99.644,-1.607,-0.379,83.2,0,109.5,13.59,-0.86,80.9
"2010-12-16 01:10:30",426682,10.59,120.9,2.973,0.63,4.515,99.62645,-1.652,-0.398,83.6,0,109.5,13.6,-0.91,82.9
"2010-12-16 01:11:00",426683,11.01,118.9,3.719,0.634,4.37,99.61002,-1.694,-0.423,84,0,109.5,13.6,-0.95,80.9
"2010-12-16 01:11:30",426684,11.35,119.8,4.231,0.712,4.533,99.58226,-1.764,-0.452,84.3,0,109.5,13.6,-1.02,81.8
"2010-12-16 01:12:00",426685,11.44,121.6,3.893,0.692,4.513,99.56611,-1.806,-0.523,84.5,0,109.5,13.6,-1.06,83.6
"2010-12-16 01:12:30",426686,11.2,121,3.302,0.647,5.075,99.54318,-1.864,-0.559,84.7,0,109.5,13.6,-1.12,83.0
"2010-12-16 01:13:00",426687,11.32,119.1,3.747,0.539,5.605,99.52534,-1.909,-0.601,84.7,0,109.5,13.6,-1.16,81.1
"2010-12-16 01:13:30",426688,10.93,113.5,4.169,0.45,6.212,99.52477,-1.911,-0.644,84.1,0,109.5,13.6,-1.17,75.5
"2010-12-16 01:14:00",426689,10.64,113.9,4.319,0.459,6.361,99.54826,-1.851,-0.69,82.2,0,109.5,13.6,-1.11,75.9
"2010-12-16 01:14:30",426690,10.22,116.1,3.351,0.655,6.483,99.57997,-1.77,-0.667,80.3,0,109.5,13.6,-1.02,78.1
"2010-12-16 01:15:00",426691,10.21,116.3,3.917,0.495,6.363,99.62642,-1.652,-0.617,79.18,0,109.5,13.6,-0.91,78.3
"2010-12-16 01:15:30",426692,9.75,117.4,3.338,0.549,6.346,99.66946,-1.542,-0.509,77.91,0,109.5,13.6,-0.80,79.4
"2010-12-16 01:16:00",426693,9.54,116,3.707,0.555,6.348,99.72413,-1.403,-0.427,76.46,0,109.5,13.6,-0.66,78.0
"2010-12-16 01:16:30",426694,9.18,115.3,3.738,0.524,6.326,99.77737,-1.267,-0.291,75.23,0,109.5,13.6,-0.52,77.3
"2010-12-16 01:17:00",426695,9.36,121.4,6.563,0.846,6.235,99.83714,-1.115,-0.171,74.1,0,109.5,13.6,-0.37,83.4
"2010-12-16 01:17:30",426696,9.28,120,4.811,0.809,6.075,99.88869,-0.983,-0.033,73.67,0,109.5,13.6,-0.23,82.0
"2010-12-16 01:18:00",426697,8.73,112.8,4.518,0.562,6.198,99.93457,-0.866,0.073,72.14,0,109.5,13.6,-0.12,74.8
"2010-12-16 01:18:30",426698,9.07,113,5.224,0.89,6.096,99.99235,-0.719,0.204,70.92,0,109.5,13.6,0.03,75.0
"2010-12-16 01:19:00",426699,9.59,116.8,3.385,0.883,5.239,100.0379,-0.603,0.314,70.63,0,109.5,13.6,0.15,78.8
"2010-12-16 01:19:30",426700,10.48,118,4.712,0.738,5.193,100.0501,-0.572,0.413,70.15,0,109.5,13.6,0.18,80.0
"2010-12-16 01:20:00",426701,10.76,114.1,3.56,0.654,4.815,100.0396,-0.598,0.435,70.21,0,109.5,13.6,0.15,76.1
"2010-12-16 01:20:30",426702,10.75,111.2,2.564,0.644,5.238,100.0232,-0.64,0.446,70.3,0,109.5,13.6,0.11,73.2
"2010-12-16 01:21:00",426703,11.19,107.9,4.317,0.382,5.327,99.99404,-0.715,0.409,70.49,0,109.5,13.6,0.03,69.9
"2010-12-16 01:21:30",426704,10.99,105.4,2.922,0.766,5.084,99.96544,-0.788,0.384,70.76,0,109.5,13.6,-0.04,67.4
"2010-12-16 01:22:00",426705,11.26,105.2,3.154,0.657,5.031,99.93004,-0.878,0.32,71.07,0,109.5,13.6,-0.13,67.2
"2010-12-16 01:22:30",426706,11.65,105.9,3.499,0.53,5.03,99.90058,-0.953,0.273,71.66,0,109.5,13.6,-0.20,67.9
"2010-12-16 01:23:00",426707,11.22,105.2,4.421,0.625,4.944,99.86602,-1.041,0.212,72.52,0,109.5,13.6,-0.29,67.2
"2010-12-16 01:23:30",426708,10.86,110.7,3.724,0.678,4.954,99.83062,-1.131,0.142,73.33,0,109.5,13.6,-0.38,72.7
"2010-12-16 01:24:00",426709,10.93,112.7,4.188,0.603,4.935,99.78672,-1.243,0.083,74.39,0,109.5,13.6,-0.50,74.7
"2010-12-16 01:24:30",426710,10.84,113.2,3.568,0.591,5.173,99.74565,-1.348,0.007,75.15,0,109.5,13.6,-0.60,75.2
"2010-12-16 01:25:00",426711,10.74,114.9,3.948,0.562,4.864,99.70798,-1.444,-0.092,75.85,0,109.5,13.6,-0.70,76.9
"2010-12-16 01:25:30",426712,10.62,110.1,4.54,0.571,5.327,99.67173,-1.536,-0.16,76.22,0,109.5,13.6,-0.79,72.1
"2010-12-16 01:26:00",426713,10.79,111.6,3.51,0.67,5.242,99.64794,-1.597,-0.273,75.78,0,109.5,13.6,-0.85,73.6
"2010-12-16 01:26:30",426714,11,111,2.821,0.672,5.466,99.62357,-1.659,-0.337,75.57,0,109.5,13.61,-0.91,73.0
"2010-12-16 01:27:00",426715,11.11,112.1,3.827,0.671,5.237,99.61197,-1.689,-0.385,75.24,0,109.5,13.61,-0.94,74.1
"2010-12-16 01:27:30",426716,11,114.5,3.89,0.552,5.154,99.5944,-1.733,-0.412,75.03,0,109.5,13.61,-0.99,76.5
"2010-12-16 01:28:00",426717,11.16,114.2,4.552,0.371,5.326,99.58704,-1.752,-0.467,74.85,0,109.5,13.61,-1.01,76.2
"2010-12-16 01:28:30",426718,11.1,113.1,3.649,0.657,5.607,99.58675,-1.753,-0.483,74.59,0,109.5,13.61,-1.01,75.1
"2010-12-16 01:29:00",426719,11.2,114.3,3.543,0.643,5.162,99.58958,-1.746,-0.525,74.43,0,109.5,13.61,-1.00,76.3
"2010-12-16 01:29:30",426720,11.21,115.5,3.314,0.547,5.086,99.58222,-1.764,-0.537,74.47,0,109.5,13.61,-1.02,77.5
"2010-12-16 01:30:00",426721,11.04,115.7,4.295,0.541,5.114,99.57088,-1.793,-0.54,74.71,0,109.5,13.61,-1.05,77.7
"2010-12-16 01:30:30",426722,11.02,115.1,3.673,0.571,5.391,99.5652,-1.808,-0.561,74.75,0,109.5,13.61,-1.06,77.1
"2010-12-16 01:31:00",426723,11.12,114.9,4.158,0.515,5.089,99.55727,-1.828,-0.587,74.55,0,109.5,13.61,-1.08,76.9
"2010-12-16 01:31:30",426724,11.2,115,3.433,0.634,5.054,99.55699,-1.829,-0.599,74.73,0,109.5,13.61,-1.08,77.0
"2010-12-16 01:32:00",426725,11.58,113.9,3.119,0.617,5.119,99.55501,-1.834,-0.621,75.04,0,109.5,13.61,-1.09,75.9
"2010-12-16 01:32:30",426726,11.75,113.3,3.183,0.578,5.375,99.53631,-1.881,-0.651,75.17,0,109.5,13.62,-1.14,75.3
"2010-12-16 01:33:00",426727,11.62,113.7,4.628,0.525,5.124,99.52498,-1.91,-0.646,75.32,0,109.5,13.61,-1.17,75.7
"2010-12-16 01:33:30",426728,11.66,114.4,3.896,0.544,5.057,99.52413,-1.913,-0.655,75.82,0,109.5,13.62,-1.17,76.4
"2010-12-16 01:34:00",426729,11.71,113.5,3.937,0.578,5.251,99.52384,-1.913,-0.689,75.92,0,109.5,13.62,-1.17,75.5
"2010-12-16 01:34:30",426730,11.59,116.6,3.848,0.471,5.399,99.51195,-1.944,-0.692,76.04,0,109.5,13.61,-1.20,78.6
"2010-12-16 01:35:00",426731,11.22,114.2,3.361,0.63,5.164,99.49666,-1.983,-0.73,76.22,0,109.5,13.62,-1.24,76.2
"2010-12-16 01:35:30",426732,11.27,115.3,4.364,0.556,5.101,99.49014,-1.999,-0.718,76.07,0,109.4,13.62,-1.25,77.3
"2010-12-16 01:36:00",426733,11.11,116.6,4.229,0.369,5.195,99.49014,-1.999,-0.768,76.32,0,109.5,13.62,-1.25,78.6
"2010-12-16 01:36:30",426734,11.07,118.2,3.657,0.654,5.211,99.48958,-2.001,-0.759,76.56,0,109.4,13.62,-1.26,80.2
"2010-12-16 01:37:00",426735,10.74,120.9,4.371,0.615,4.743,99.47541,-2.037,-0.788,76.97,0,109.5,13.62,-1.29,82.9
"2010-12-16 01:37:30",426736,10.77,119.8,4.355,0.473,4.688,99.4604,-2.075,-0.791,77.48,0,109.5,13.62,-1.33,81.8
"2010-12-16 01:38:00",426737,10.62,117.8,3.915,0.525,4.971,99.45615,-2.086,-0.838,77.8,0,109.5,13.61,-1.34,79.8
"2010-12-16 01:38:30",426738,10.48,117.1,3.378,0.504,5.017,99.45332,-2.093,-0.859,77.71,0,109.5,13.61,-1.35,79.1
"2010-12-16 01:39:00",426739,10.44,117,3.868,0.548,5.148,99.4434,-2.118,-0.878,77.27,0,109.5,13.61,-1.37,79.0
"2010-12-16 01:39:30",426740,10.42,115.7,4.109,0.672,5.152,99.44114,-2.124,-0.867,76.77,0,109.4,13.61,-1.38,77.7
"2010-12-16 01:40:00",426741,10.63,115.9,4.085,0.673,4.804,99.44028,-2.126,-0.915,76.62,0,109.4,13.61,-1.38,77.9
"2010-12-16 01:40:30",426742,10.87,115.9,3.878,0.361,5.228,99.43999,-2.127,-0.905,76.64,0,109.4,13.61,-1.38,77.9
"2010-12-16 01:41:00",426743,10.66,116.5,3.565,0.718,4.94,99.43999,-2.127,-0.908,76.42,0,109.5,13.61,-1.38,78.5
"2010-12-16 01:41:30",426744,10.85,117.8,3.616,0.785,4.914,99.44397,-2.117,-0.893,76.31,0,109.4,13.61,-1.37,79.8
"2010-12-16 01:42:00",426745,11.33,117.7,4.242,0.677,4.908,99.4434,-2.118,-0.896,76.65,0,109.4,13.61,-1.37,79.7
"2010-12-16 01:42:30",426746,11.72,116.7,3.934,0.331,5.24,99.43944,-2.128,-0.914,76.66,0,109.4,13.61,-1.38,78.7
"2010-12-16 01:43:00",426747,11.52,114.1,3.984,0.706,5.26,99.43944,-2.128,-0.907,76.42,0,109.5,13.62,-1.38,76.1
"2010-12-16 01:43:30",426748,11.84,113.7,3.433,0.676,5.137,99.4434,-2.118,-0.92,76.1,0,109.4,13.62,-1.37,75.7
"2010-12-16 01:44:00",426749,12.04,113.9,4.355,0.312,5.224,99.44595,-2.112,-0.916,75.75,0,109.4,13.62,-1.37,75.9
"2010-12-16 01:44:30",426750,11.97,115,3.177,0.628,5.474,99.44992,-2.102,-0.907,75.6,0,109.4,13.62,-1.36,77.0
"2010-12-16 01:45:00",426751,11.7,113.1,4.483,0.535,5.295,99.4519,-2.097,-0.912,75.38,0,109.4,13.62,-1.35,75.1
"2010-12-16 01:45:30",426752,11.61,114.1,4.401,0.54,5.325,99.45473,-2.089,-0.89,75.3,0,109.4,13.62,-1.34,76.1
"2010-12-16 01:46:00",426753,11.73,111.8,3.997,0.549,5.395,99.45473,-2.089,-0.911,75.2,0,109.4,13.62,-1.34,73.8
"2010-12-16 01:46:30",426754,11.87,112.4,3.274,0.518,5.291,99.45615,-2.086,-0.92,74.87,0,109.4,13.62,-1.34,74.4
"2010-12-16 01:47:00",426755,11.55,113.5,4.029,0.618,5.11,99.45615,-2.086,-0.912,74.87,0,109.4,13.62,-1.34,75.5
"2010-12-16 01:47:30",426756,11.34,113.5,3.619,0.681,5.097,99.45417,-2.091,-0.889,75.28,0,109.4,13.62,-1.35,75.5
"2010-12-16 01:48:00",426757,11.5,113,3.19,0.662,5.124,99.44595,-2.112,-0.906,75.44,0,109.4,13.62,-1.37,75.0
"2010-12-16 01:48:30",426758,11.34,115.8,3.512,0.509,5.095,99.43944,-2.128,-0.918,75.71,0,109.4,13.62,-1.38,77.8
"2010-12-16 01:49:00",426759,11.5,114.5,3.675,0.648,5.03,99.43236,-2.146,-0.916,76.1,0,109.5,13.62,-1.40,76.5
"2010-12-16 01:49:30",426760,11.38,114.9,4.246,0.573,5.117,99.42528,-2.164,-0.892,75.91,0,109.4,13.62,-1.42,76.9